Flag for Bosnia-Herzegovina Weather past 2 weeks in Sarajevo, Bosnia-Herzegovina

Now
63 °F

Scattered clouds.


Feels Like: 63 °F
Forecast: 53 / 66 °F
Wind: 1 mph from North

Location: Sarajevo / Butmir

Current Time: Sep 16, 2014 at 2:29:06 PM

Latest Report: Sep 16, 2014 at 2:00 PM


Visibility: N/A

Pressure: 30.07 "Hg

Humidity: 68%

Dew point: 52 °F

Location of SarajevoLocation

Historic Weather in Sarajevo — Graph

°F

Sarajevo temperature yesterday

Maximum temperature yesterday: 66 °F (at 1:30 PM)
Minimum temperature yesterday: 55 °F (at 4:00 AM)
Average temperature yesterday: 59 °F

Past Weeks' High & Low Weather Summary

 TemperatureHumidityPressure
High79 °F (Sep 10, 4:00 PM)100% (Sep 1, 6:30 PM)30.12 "Hg (Sep 1, 6:30 PM)
Low48 °F (Sep 14, 5:30 AM)42% (Sep 1, 1:30 PM)29.71 "Hg (Sep 1, 1:30 PM)
Average63 °F85%29.95 "Hg
* Reported Sep 1 1:00 PM — Sep 16 1:30 PM, Sarajevo, Weather by CustomWeather, © 2014

Note: Actual official high and low records may vary slightly from our data, if they occured in-between our weather recording intervals... More about our weather records

Advertising

Sarajevo weather history for previous 24 hours

 ConditionsComfort  
Time TempWeatherWind HumidityBarometerVisibility
1:30 PM
Sep 16
63 °FBroken clouds.3 mph73%30.07 "HgN/A
1:00 PM63 °FBroken clouds.5 mph73%30.07 "HgN/A
12:30 PM63 °FBroken clouds.5 mph73%30.07 "HgN/A
12:00 PM63 °FScattered clouds.7 mph73%30.07 "HgN/A
11:30 AM63 °FScattered clouds.5 mph73%30.07 "HgN/A
11:00 AM61 °FScattered clouds.2 mph77%30.07 "HgN/A
10:30 AM59 °FScattered clouds.2 mph77%30.09 "Hg5 mi
10:00 AM59 °FScattered clouds.2 mph82%30.09 "Hg5 mi
9:30 AM57 °FBroken clouds.1 mph88%30.09 "Hg5 mi
9:00 AM55 °FBroken clouds.3 mph88%30.09 "Hg5 mi
8:30 AM55 °FBroken clouds.No wind88%30.09 "Hg5 mi
8:00 AM55 °FBroken clouds.1 mph88%30.09 "Hg4 mi
7:30 AM54 °FSleet. Broken clouds.1 mph94%30.09 "Hg4 mi
7:00 AM54 °FSleet. Partly cloudy.1 mph94%30.09 "Hg4 mi
6:30 AM54 °FSleet. Fog.1 mph94%30.09 "Hg3 mi
6:00 AM54 °FFog.1 mph94%30.09 "Hg2 mi
5:30 AM54 °FFog.No wind94%30.09 "Hg3 mi
5:00 AM54 °FFog.1 mph94%30.09 "Hg3 mi
4:00 AM54 °FFog.1 mph94%30.07 "Hg3 mi
3:00 AM54 °FPartly cloudy.No wind94%30.07 "Hg4 mi
2:00 AM54 °FPartly cloudy.No wind94%30.07 "Hg4 mi
1:00 AM52 °FPassing clouds.No wind94%30.07 "HgN/A
12:00 AM54 °FPassing clouds.1 mph94%30.09 "HgN/A
11:00 PM
Sep 15
55 °FPassing clouds.1 mph94%30.09 "HgN/A
10:30 PM55 °FPassing clouds.2 mph88%30.07 "HgN/A
10:00 PM55 °FPassing clouds.2 mph88%30.07 "HgN/A
9:30 PM57 °FPassing clouds.2 mph88%30.07 "HgN/A
9:00 PM57 °FClear.2 mph88%30.07 "Hg10 mi
8:30 PM57 °FClear.2 mph88%30.07 "Hg10 mi
8:00 PM57 °FPassing clouds.3 mph82%30.04 "HgN/A
7:30 PM59 °FPassing clouds.5 mph82%30.04 "HgN/A
7:00 PM61 °FPassing clouds.5 mph77%30.04 "HgN/A
6:30 PM63 °FPassing clouds.7 mph77%30.04 "HgN/A
6:00 PM63 °FPassing clouds.7 mph68%30.04 "HgN/A
5:30 PM63 °FPassing clouds.7 mph68%30.04 "HgN/A
5:00 PM66 °FPassing clouds.6 mph56%30.04 "HgN/A
4:30 PM64 °FPassing clouds.5 mph60%30.01 "HgN/A
4:00 PM66 °FPassing clouds.2 mph60%30.01 "HgN/A
3:30 PM64 °FScattered clouds.3 mph60%30.04 "HgN/A
3:00 PM64 °FScattered clouds.6 mph60%30.04 "HgN/A
2:30 PM66 °FPassing clouds.5 mph60%30.04 "HgN/A
2:00 PM66 °FPassing clouds.5 mph60%30.04 "HgN/A
Weather by CustomWeather, © 2014

See weather overviewHow to use our weather pages